OpenBCM V1.07b12 (Linux)

Packet Radio Mailbox

SR1BSZ

[Szczecin_PL JO73GK]

 Login: GUEST





  
I0OJJ  > KEPS     28.08.25 23:04z 316 Lines 15020 Bytes #3 (0) @ AMSAT
BID : ORB25240.1
Read: GUEST
Subj: 2Line Orbital Elements 25240.AMSAT
Path: SR1BSZ<EA2RCF<I0OJJ
Sent: 250828/0025z @:I0OJJ.ITA.EU [Rome] obcm1.08-10-g596e
From: I0OJJ @ I0OJJ.ITA.EU (Gustavo)
To:   KEPS @ AMSAT
X-Info: This message was generated automatically


QST de KM1P

AMSAT Orbital Elements for Amateur Satellites in TLE Format
From Orbital Analysis Auxilliary Summer Office
New England Sci-Tech STEM Education Center
Narragansett RI August 28, 2025
To all radio amateurs


These element sets describe the orbits of various satellites 
in use by the amateur radio community. For details see:
www.amsat.org/keplerian-elements-formats/

A daily update of element sets is available at:
www.amsat.org/tle/daily-bulletin.txt
or without bulletin text:
www.amsat.org/tle/dailytle.txt


AO-07
1 07530U 74089B   25239.57806579 -.00000042  00000-0  29561-4 0  9995
2 07530 101.9971 244.6908 0012083 333.2889 141.1810 12.53691107323726
UO-11
1 14781U 84021B   25239.46901850  .00001641  00000-0  17755-3 0  9990
2 14781  97.7621 204.3165 0009395  78.3830 281.8442 14.89587178213385
AO-27
1 22825U 93061C   25239.44871906  .00000113  00000-0  60408-4 0  9995
2 22825  98.7304 301.3740 0007461 237.6579 122.3882 14.30821024664992
FO-29
1 24278U 96046B   25239.56817809  .00000009  00000-0  42170-4 0  9990
2 24278  98.5626 123.0288 0350539 137.8153 225.0537 13.53252072433451
NOAA-15
1 25338U 98030A   25239.55306412  .00000122  00000-0  67795-4 0  9991
2 25338  98.5331 262.7747 0011267 124.4413 235.7834 14.27007062419413
GO-32
1 25397U 98043D   25239.51034984  .00000085  00000-0  57014-4 0  9999
2 25397  98.9782 220.3046 0001460  28.6768 331.4490 14.24332177409524
ISS
1 25544U 98067A   25239.49545730  .00012424  00000-0  22353-3 0  9999
2 25544  51.6346 313.6404 0003276 278.7031  81.3587 15.50227452526226
NO-44
1 26931U 01043C   25239.58239826  .00000112  00000-0  73099-4 0  9999
2 26931  67.0500 283.5732 0006899 275.9624  84.0692 14.31767027248414
SO-50
1 27607U 02058C   25239.58663489  .00001201  00000-0  16499-3 0  9993
2 27607  64.5539 316.6202 0064631 317.2247  42.3838 14.81813984220933
CO-55
1 27844U 03031E   25239.58557467  .00000344  00000-0  16863-3 0  9998
2 27844  98.6783 246.8478 0008864 324.6112  35.4478 14.24048947149886
CO-57
1 27848U 03031J   25239.50079381  .00000291  00000-0  14744-3 0  9995
2 27848  98.6811 246.7097 0009123 343.3364  16.7513 14.23376258149592
RS-22
1 27939U 03042A   25239.56884711  .00001302  00000-0  21308-3 0  9993
2 27939  98.3355  50.9685 0012480 117.1186 315.7687 14.72519936172327
CO-58
1 28895U 05043F   25239.34864363  .00001809  00000-0  30116-3 0  9994
2 28895  98.2607  24.7400 0015435  60.2370 300.0370 14.71249753 58525
CO-65
1 32785U 08021C   25239.53759625  .00007128  00000-0  50449-3 0  9992
2 32785  97.7929 211.3514 0008198 312.4312  47.6220 15.05135064940957
CO-66
1 32791U 08021J   25239.52858426  .00015201  00000-0  69944-3 0  9998
2 32791  97.7343 221.4507 0001545 216.5046 143.6084 15.20429353942484
RS-30
1 32953U 08025A   25239.59327718  .00000036  00000-0  19069-3 0  9997
2 32953  82.5064 178.0477 0017985 231.9061 128.0398 12.43167542783212
NOAA-19
1 33591U 09005A   25239.56079114  .00000106  00000-0  80151-4 0  9995
2 33591  98.9914 304.6875 0014552 137.9009 222.3284 14.13399414853000
SRMSAT
1 37841U 11058D   25239.48871446  .00000428  00000-0  88528-4 0  9990
2 37841  19.9730  37.0282 0011668 212.8872 183.1277 14.11456184716275
ZACUBE-1
1 39417U 13066B   25239.32776709  .00004465  00000-0  38294-3 0  9990
2 39417  97.7863 195.9826 0044285 147.0002 213.3998 14.97265969636696
Delfi-N3xt
1 39428U 13066N   25239.19743826  .00008550  00000-0  85024-3 0  9993
2 39428  97.8295 155.9952 0085409 101.1591 259.9243 14.89182212630773
GOMX-1
1 39430U 13066Q   25239.63310696  .00001670  00000-0  26481-3 0  9998
2 39430  97.6752  93.4283 0130650 299.7640  59.0622 14.67909707626826
LO-74
1 39440U 13066AA  25239.57516862  .00004401  00000-0  44198-3 0  9995
2 39440  97.8527 183.6294 0059607 279.6601  79.7887 14.90487286633200
AO-73
1 39444U 13066AE  25239.45027188  .00009143  00000-0  66643-3 0  9991
2 39444  97.7880 201.7378 0042602 119.2280 241.3216 15.03226798635433
DTUSAT-2
1 40030U 14033W   25239.48130232  .00009027  00000-0  57151-3 0  9992
2 40030  98.0626 215.1967 0010137 144.1237 216.0672 15.09185708608298
EO-80
1 40032U 14033Y   25239.43125537  .00008089  00000-0  51161-3 0  9993
2 40032  98.0503 214.6888 0010454  94.5121 265.7301 15.09260079608264
LILACSAT-2
1 40908U 15049K   25239.63647512  .00013463  00000-0  33275-3 0  9995
2 40908  97.5038 261.9736 0007489 225.2344 134.8293 15.40577428550394
IO-86
1 40931U 15052B   25151.18580175  .00001241  00000-0  78118-4 0  9996
2 40931   6.0006  24.0987 0012733 338.8432  21.1169 14.78805930523159
Horyu-4
1 41340U 16012D   25239.50105164  .00030017  00000-0  71971-3 0  9994
2 41340  30.9965 319.9766 0007131 158.8490 201.2452 15.40143210524956
Lapan A3
1 41603U 16040E   25239.63200435  .00004182  00000-0  14472-3 0  9995
2 41603  97.1407 241.1733 0010520 358.1772   1.9429 15.30352786509870
CAS-2T
1 41847U 16066G   25239.48927725  .00000673  00000-0  10594-3 0  9996
2 41847  98.4152 313.2531 0344387 299.8503  56.8872 14.43668770462406
CAS-4B
1 42759U 17034B   25239.60280735  .00144015  00000-0  86872-3 0  9993
2 42759  43.0022 206.9926 0020892 132.1030 228.1620 15.76157823455016
CAS-4A
1 42761U 17034D   25239.61258470  .00180095  00000-0  96514-3 0  9990
2 42761  43.0057 202.8999 0021527 137.7527 222.5006 15.78668439455041
TechnoSat
1 42829U 17042E   25239.52589184  .00003737  00000-0  28718-3 0  9991
2 42829  97.4007  44.4977 0017980  20.8096 339.3857 15.02187327442575
AO-91
1 43017U 17073E   25239.62898585  .00008112  00000-0  40952-3 0  9990
2 43017  97.5129 108.4165 0167150 256.8929 101.3598 15.05933587421107
S-Net D
1 43186U 18014G   25239.44330352  .00005503  00000-0  31965-3 0  9991
2 43186  97.5523 141.5430 0007641 324.6706  35.4018 15.12499867414292
S-Net B
1 43187U 18014H   25239.58205486  .00005796  00000-0  33655-3 0  9998
2 43187  97.5529 141.6560 0008183 317.8387  42.2214 15.12482283414316
S-Net A
1 43188U 18014J   25239.50956707  .00005622  00000-0  32638-3 0  9998
2 43188  97.5537 141.7449 0008092 319.0376  41.0246 15.12506722414300
S-Net C
1 43189U 18014K   25239.18769575  .00005794  00000-0  33644-3 0  9996
2 43189  97.5555 141.4539 0009448 310.2857  49.7547 15.12474765412804
Ten-Koh
1 43677U 18084G   25239.47295159  .00002624  00000-0  21118-3 0  9991
2 43677  98.0835  54.8545 0006912  14.1410 346.0005 15.00895148372070
PO-101
1 43678U 18084H   25239.58397735  .00003354  00000-0  28452-3 0  9996
2 43678  98.1087  58.7587 0009173  38.1034 322.0834 14.98645265372219
QO-100
1 43700U 18090A   25239.24815478  .00000142  00000-0  00000-0 0  9999
2 43700   0.0170 126.4738 0001102  42.4302 281.9518  1.00272536 24729
MinXSS-2
1 43758U 18099A   25239.43650656  .00019198  00000-0  70503-3 0  9996
2 43758  97.4952 305.8209 0010497 231.1740 128.8563 15.27924279369000
AO-95
1 43770U 18099N   25239.09993479  .00010720  00000-0  52251-3 0  9997
2 43770  97.4844 296.3549 0008802 301.7384  58.2991 15.18477175368468
SNUSat 2
1 43782U 18099AA  25239.59542915  .00007936  00000-0  42054-3 0  9995
2 43782  97.4524 292.9402 0010586 234.2481 125.7768 15.15610042368467
SnugLite
1 43784U 18099AC  25239.57403920  .00011479  00000-0  55408-3 0  9991
2 43784  97.4338 292.6517 0002580 213.7704 146.3366 15.18827063368628
ITASat 1
1 43786U 18099AE  25239.55970432  .00007832  00000-0  43648-3 0  9999
2 43786  97.4494 292.1754 0012463 295.0486  64.9451 15.13802029368408
EAGLET 1
1 43790U 18099AJ  25239.37670230  .00004699  00000-0  29574-3 0  9997
2 43790  97.4690 291.6795 0010363 279.5179  80.4879 15.09627099367956
ESEO
1 43792U 18099AL  25239.57376466  .00001293  00000-0  10066-3 0  9998
2 43792  97.4418 284.0635 0009971 250.6287 109.3861 15.02868418367685
JO-97
1 43803U 18099AX  25239.56543880  .00014491  00000-0  62898-3 0  9990
2 43803  97.4589 297.9923 0006664 216.6292 143.4490 15.22415409368783
Suomi 100
1 43804U 18099AY  25239.58163536  .00012410  00000-0  58303-3 0  9994
2 43804  97.4656 297.0659 0011123 226.3815 133.6497 15.19696687368694
ISAT
1 43879U 18111D   25239.50227395  .00026981  00000-0  85347-3 0  9993
2 43879  97.5883 155.7656 0005234 279.8624  80.2027 15.32741387365778
UWE-4
1 43880U 18111E   25239.57505341  .00020476  00000-0  74966-3 0  9990
2 43880  97.5827 153.7290 0008972 298.0677  61.9655 15.28028382365684
Sparrow
1 43881U 18111F   25239.22076027  .00029676  00000-0  89743-3 0  9997
2 43881  97.6043 158.6763 0004576 343.9310  16.1787 15.34158239365832
Prox-1
1 44339U 19036A   25239.40189126  .00013930  00000-0  17064-2 0  9990
2 44339  23.9960 263.4890 0006693 245.5682 114.4118 14.81390440329718
Taurus 1
1 44530U 19059C   25239.54617598  .00008395  00000-0  15162-2 0  9998
2 44530  98.6157  22.7674 0010001 148.1230 212.0579 14.66671155315516
Duchifat 3
1 44854U 19089C   25239.60861369  .00070462  00000-0  10599-2 0  9997
2 44854  36.9390 210.2554 0007891 237.1112 122.8888 15.53696431315287
TO-108
1 44881U 19093C   25239.63009409  .00000978  00000-0  11868-3 0  9990
2 44881  97.7875 313.6146 0013092 337.7985  22.2662 14.85740218307810
FloripaSat 1
1 44885U 19093G   25239.59213932  .00007424  00000-0  61373-3 0  9996
2 44885  97.8142 327.3839 0007810 304.6144  55.4341 14.99206368308589
RS-44
1 44909U 19096E   25239.51705819  .00000040  00000-0  10644-3 0  9990
2 44909  82.5249 174.8416 0218441 110.8725 251.5914 12.79742769264781
UPMSat 2
1 46276U 20061E   25239.49265342  .00161141  00000-0  76820-3 0  9990
2 46276  97.2334 317.1843 0002271 207.8594 152.2554 15.82407988277887
SALSAT
1 46495U 20068K   25239.51223596  .00008714  00000-0  36523-3 0  9990
2 46495  97.8678 221.2724 0009265 242.8859 117.1432 15.23744179270545
